Flag for Cambodia Weather past 2 weeks in Phnom Penh, Cambodia

Now
91 °F

Scattered clouds.


Feels Like: 96 °F
Forecast: 80 / 97 °F
Wind: 7 mph from Southeast

Location: Phnom-Penh / Pochentong


UV Index: 10 (Very high)

Visibility: N/A


Pressure: 29.71 "Hg

Humidity: 46%

Dew point: 68 °F

Location of Phnom PenhLocation

Historic Weather in Phnom Penh

°F

Phnom Penh temperature yesterday

Maximum temperature yesterday: 91 °F (at 12:30 PM)
Minimum temperature yesterday: 79 °F (at 1:00 AM)
Average temperature yesterday: 85 °F

Past Weeks' High & Low Weather Summary

 TemperatureHumidityPressure
High97 °F (Apr 3, 3:00 PM)89% (Apr 4, 1:00 PM)29.95 "Hg (Apr 4, 1:00 PM)
Low73 °F (Apr 5, 11:00 PM)34% (Apr 3, 3:00 PM)29.65 "Hg (Apr 3, 3:30 PM)
Average86 °F65%29.79 "Hg
* Reported Apr 3 3:00 PM — Apr 18 3:00 PM, Phnom Penh, Weather by CustomWeather, © 2014

Note: Actual official high and low records may vary slightly from our data, if they occured in-between our weather recording intervals... More about our weather records

Advertising

Historic Weather Conditions — Data for Previous 24 hours

 ConditionsComfort  
Time TempWeatherWind HumidityBarometerVisibility
3:00 PM
Apr 18
91 °FScattered clouds.8 mph46%29.71 "HgN/A
2:30 PM91 °FBroken clouds.9 mph56%29.74 "HgN/A
2:00 PM90 °FBroken clouds.5 mph59%29.74 "HgN/A
1:30 PM90 °FBroken clouds.6 mph59%29.77 "HgN/A
1:00 PM88 °FBroken clouds.7 mph62%29.77 "HgN/A
12:30 PM88 °FBroken clouds.7 mph62%29.80 "HgN/A
12:00 PM90 °FScattered clouds.8 mph63%29.80 "HgN/A
11:30 AM88 °FScattered clouds.7 mph66%29.83 "HgN/A
11:00 AM88 °FScattered clouds.3 mph66%29.83 "HgN/A
10:30 AM86 °FScattered clouds.3 mph70%29.83 "Hg6 mi
9:30 AM84 °FBroken clouds.7 mph74%29.83 "Hg6 mi
9:00 AM84 °FBroken clouds.6 mph74%29.83 "Hg6 mi
8:30 AM82 °FBroken clouds.5 mph79%29.83 "Hg5 mi
8:00 AM82 °FBroken clouds.7 mph79%29.83 "Hg5 mi
7:30 AM81 °FRain. Broken clouds.6 mph79%29.80 "Hg5 mi
7:00 AM81 °FRain. Broken clouds.3 mph74%29.80 "Hg5 mi
6:00 AM79 °FBroken clouds.5 mph79%29.77 "Hg5 mi
1:00 AM81 °FPassing clouds.7 mph79%29.74 "Hg6 mi
12:00 AM81 °FPassing clouds.6 mph74%29.77 "Hg6 mi
11:30 PM
Apr 17
82 °FPassing clouds.3 mph74%29.77 "Hg6 mi
11:00 PM82 °FPassing clouds.5 mph74%29.74 "Hg6 mi
10:30 PM82 °FPassing clouds.5 mph70%29.77 "Hg6 mi
10:00 PM84 °FPassing clouds.6 mph66%29.77 "Hg6 mi
9:30 PM84 °FPassing clouds.6 mph66%29.77 "Hg6 mi
9:00 PM84 °FPassing clouds.5 mph66%29.74 "HgN/A
8:30 PM84 °FPassing clouds.5 mph66%29.74 "HgN/A
8:00 PM84 °FPassing clouds.6 mph70%29.74 "Hg6 mi
7:30 PM82 °FPassing clouds.7 mph74%29.71 "Hg6 mi
7:00 PM84 °FPassing clouds.8 mph70%29.71 "Hg6 mi
6:30 PM82 °FPassing clouds.9 mph70%29.71 "HgN/A
6:00 PM84 °FScattered clouds.13 mph66%29.68 "HgN/A
5:30 PM88 °FScattered clouds.6 mph59%29.68 "HgN/A
5:00 PM88 °FScattered clouds.7 mph55%29.68 "HgN/A
4:30 PM90 °FScattered clouds.9 mph55%29.68 "HgN/A
4:00 PM88 °FScattered clouds.15 mph55%29.68 "HgN/A
Weather by CustomWeather, © 2014

See weather overview